Torna al catalogo

TITAN 3C TRANSTAGE DEB

AttivoMEO
NORAD 38705·DEBRIS·🇺🇸 United States

Lanciato Sep 26, 1968 da Cape Canaveral Space Force Station

Loading…

Prossimi Passaggi (prossime 24 ore)

TLE

AggiornatoSource: Space-Track

Epoca: Sep 14, 2026, 06:06 UTC

1 38705U 68081AF  26257.25434358 -.00000069  00000-0  00000-0 0  9998
2 38705   3.3909  61.0747 0286696   1.6042 358.8052  1.02088360 75971

Traccia TITAN 3C TRANSTAGE DEB in tempo reale con AllMySat

Download on the App Store